STARLINK-35753, 66232

Orbit data source: Space-Track

STARLINK-35753, 66232 is a payload satellite owned by SpaceX/Seattle (US) in LEO that was launched on Tue, 28 Oct 2025 UTC via an FALCON 9 launch vehicle from the Air Force Western Test Range (AFWTR). Payload-class satellites include a variety of spacecraft equipped with specific instruments for various scientific and technological missions. These include communications satellites like Starlink; space stations such as the ISS; scientific satellites like the Hubble; Earth observation satellites from companies like Planet Labs, Umbra, and HawkEye 360; GPS; miniature CubeSats for education and research; and military/defense satellites.

Loading next visibility...
Identifier
66232, 2025-244AC
Orbit
LEO
Country
Flag of USUS
Related business
Manufacturer
SpaceX/Seattle
Mission
Operational Commercial Communications
Bus & Motor
STARLINK V2MO, Unknown motor
Mass
575 kg wet, ~530 kg dry
Launch date (UTC)
2025-10-28 (8 months ago)
Launch vehicle
FALCON 9
Launch site
Air Force Western Test Range (AFWTR)
Object type
Payload
Rocket body
Debris
Shape & HBR
Box + 2 Pan, 17.7 m
Radar Cross Section
36.964 m², Large (>1 m²)

Expand to show TLE details & history
Last TLE update: 12 hours ago

TLE from 12 hours ago
0 STARLINK-35753
1 66232U 25244AC  26171.35761552  .00010805  00000-0  37625-3 0  9997
2 66232  53.1598 113.3631 0001317  93.4369 266.6783 15.30214400 37374
Epoch: 2026-06-20T08:34Z
TLE epoch observation values (Epoch: 2026-06-20T08:34:57.980Z)
Latitude
Longitude
76.04812°
Altitude
476.124 km
Speed
7.629 km/s
True Right ascension
07h 33m 27s
True Declination
0° 00' 00"
Sunlit
Object was in daylight at epoch
Visualization orbit readout
Latitude
Unknown
Longitude
Unknown
Altitude
Unknown
Speed
Unknown
Apparent Right ascension
Unknown
Apparent Declination
Unknown
Sunlit
N/A
Visualization observer readout
Local Sidereal Time
07:12:11
Azimuth
Unknown
Elevation
Unknown
Doppler factor
Unknown
Orbital elements
Apogee altitude
476.331 km
Perigee altitude
474.526 km
Semi-major axis
6,853.566 km
Eccentricity
0.00013
Inclination
53.1598°
RAAN
113.3631°
Arg. of periapsis
93.4369°
True anomaly
266.66323°
Mean anomaly
266.6783°
Eccentric anomaly
266.67077°
Mean motion
3.82532 °/min
Orbital period
94.11 mins
BSTAR
0.00037625
Loading maneuver chart data...
Computing Atmospheric mass density...
Loading historical data...
Loading historical data...
Loading historical data...
Loading historical data...
Loading historical data...
Loading historical data...
Loading historical data...

Documentation

Showing up to 5 results
|